Weather History for Novato, CA

Change the Weather History Date:

Friday, June 7, 2013

  Actual Average (KAPC) Record (KAPC)
Temperature  
Mean Temperature 72 °F 63 °F  
Max Temperature 95 °F 77 °F 93 °F (2001)
Min Temperature 48 °F 49 °F 37 °F (1999)
Degree Days  
Heating Degree Days 0    
Month to date heating degree days  
Since 1 June heating degree days  
Since 1 July heating degree days  
Cooling Degree Days 6    
Month to date cooling degree days  
Year to date cooling degree days  
Since 1 June cooling degree days  
Growing Degree Days 22 (Base 50)    
Moisture  
Dew Point 55 °F    
Average Humidity 71    
Maximum Humidity 100    
Minimum Humidity 28    
Precipitation  
Precipitation 0.00 in - 0.54 in (1947)
Month to date precipitation  
Year to date precipitation  
Since 1 July precipitation  
Sea Level Pressure  
Sea Level Pressure 29.82 in    
Wind  
Wind Speed 4 mph (NNE)    
Max Wind Speed 15 mph    
Max Gust Speed -    
Visibility 10 miles    
Events      
T = Trace of Precipitation, MM = Missing Value Source: NWS Daily Summary

Daily Weather History Graph

Daily Weather History Graph

Search for Another Location

Airport:

Trip Planner

Search our weather history database for the weather conditions in past years. The results will help you decide how hot, cold, wet, or windy it might be!

Date:

Astronomy

Jun. 07, 2013 Rise Set
Actual Time 5:47 AM PDT 8:31 PM PDT
Civil Twilight 5:15 AM PDT 9:02 PM PDT
Nautical Twilight 4:36 AM PDT 9:41 PM PDT
Astronomical Twilight 3:52 AM PDT 10:26 PM PDT
Moon 5:12 AM PDT (6/7) 7:50 PM PDT (6/7)
Length of Visible Light 15h 46m
Length of Day
14h 44m
Waning Crescent, 1% of the Moon is Illuminated
Jun 7
Waning Crescent
Jun 8
New
Jun 16
First Quarter
Jun 23
Full
Jun 29
Last Quarter

Hourly Weather History & Observations

Time (PDT) Temp. Heat Index Dew Point Humidity Pressure Visibility Wind Dir Wind Speed Gust Speed Precip Events Conditions
12:15 AM 48.2 °F - 48.2 °F 100% 29.90 in 10.0 mi North 3.5 mph - N/A   Partly Cloudy
12:35 AM 50.0 °F - 50.0 °F 100% 29.90 in 10.0 mi North 3.5 mph - N/A   Partly Cloudy
12:55 AM 50.0 °F - 50.0 °F 100% 29.90 in 10.0 mi WSW 3.5 mph - N/A   Mostly Cloudy
1:15 AM 51.8 °F - 51.8 °F 100% 29.90 in 10.0 mi Calm Calm - N/A   Mostly Cloudy
1:35 AM 50.0 °F - 50.0 °F 100% 29.90 in 10.0 mi Calm Calm - N/A   Mostly Cloudy
1:55 AM 50.0 °F - 50.0 °F 100% 29.89 in 10.0 mi Calm Calm - N/A   Mostly Cloudy
2:15 AM 51.8 °F - 51.8 °F 100% 29.89 in 10.0 mi Calm Calm - N/A   Overcast
2:35 AM 51.8 °F - 51.8 °F 100% 29.89 in 10.0 mi Calm Calm - N/A   Overcast
2:55 AM 53.6 °F - 53.6 °F 100% 29.88 in 10.0 mi Calm Calm - N/A   Overcast
3:15 AM 53.6 °F - 53.6 °F 100% 29.88 in 10.0 mi Calm Calm - N/A   Overcast
3:35 AM 53.6 °F - 53.6 °F 100% 29.88 in 10.0 mi Calm Calm - N/A   Overcast
3:55 AM 53.6 °F - 53.6 °F 100% 29.88 in 10.0 mi West 3.5 mph - N/A   Overcast
4:15 AM 53.6 °F - 53.6 °F 100% 29.88 in 10.0 mi Calm Calm - N/A   Overcast
4:35 AM 53.6 °F - 53.6 °F 100% 29.88 in 10.0 mi Calm Calm - N/A   Overcast
4:55 AM 53.6 °F - 53.6 °F 100% 29.88 in 10.0 mi Calm Calm - N/A   Overcast
5:15 AM 51.8 °F - 51.8 °F 100% 29.88 in 10.0 mi Calm Calm - N/A   Overcast
5:35 AM 51.8 °F - 51.8 °F 100% 29.88 in 10.0 mi Calm Calm - N/A   Overcast
5:55 AM 51.8 °F - 51.8 °F 100% 29.88 in 9.0 mi Calm Calm - N/A   Overcast
6:15 AM 51.8 °F - 51.8 °F 100% 29.89 in 8.0 mi North 3.5 mph - N/A   Overcast
6:35 AM 51.8 °F - 51.8 °F 100% 29.89 in 7.0 mi NNW 4.6 mph - N/A   Overcast
6:55 AM 51.8 °F - 51.8 °F 100% 29.89 in 10.0 mi NNW 3.5 mph - N/A   Overcast
7:15 AM 51.8 °F - 51.8 °F 100% 29.89 in 6.0 mi Calm Calm - N/A   Overcast
7:35 AM 51.8 °F - 51.8 °F 100% 29.89 in 9.0 mi Calm Calm - N/A   Overcast
7:55 AM 53.6 °F - 53.6 °F 100% 29.89 in 9.0 mi Calm Calm - N/A   Overcast
8:15 AM 53.6 °F - 53.6 °F 100% 29.89 in 10.0 mi Calm Calm - N/A   Overcast
8:35 AM 55.4 °F - 55.4 °F 100% 29.89 in 10.0 mi NNE 3.5 mph - N/A   Overcast
8:55 AM 55.4 °F - 55.4 °F 100% 29.89 in 9.0 mi NNE 3.5 mph - N/A   Overcast
9:15 AM 57.2 °F - 55.4 °F 94% 29.89 in 9.0 mi Calm Calm - N/A   Partly Cloudy
9:35 AM 59.0 °F - 55.4 °F 88% 29.89 in 10.0 mi Calm Calm - N/A   Clear
9:55 AM 60.8 °F - 55.4 °F 82% 29.88 in 10.0 mi Calm Calm - N/A   Clear
10:15 AM 62.6 °F - 55.4 °F 77% 29.88 in 10.0 mi Calm Calm - N/A   Clear
10:35 AM 64.4 °F - 55.4 °F 73% 29.87 in 10.0 mi South 3.5 mph - N/A   Clear
10:55 AM 68.0 °F - 55.4 °F 64% 29.87 in 10.0 mi Calm Calm - N/A   Clear
11:15 AM 68.0 °F - 55.4 °F 64% 29.86 in 10.0 mi NNE 3.5 mph - N/A   Clear
11:35 AM 71.6 °F - 55.4 °F 57% 29.86 in 10.0 mi NNE 3.5 mph - N/A   Clear
11:55 AM 73.4 °F - 55.4 °F 53% 29.85 in 10.0 mi Calm Calm - N/A   Clear
12:15 PM 77.0 °F - 57.2 °F 50% 29.85 in 10.0 mi NE 5.8 mph - N/A   Clear
12:35 PM 80.6 °F 80.8 °F 57.2 °F 45% 29.84 in 10.0 mi NNE 6.9 mph - N/A   Clear
12:55 PM 82.4 °F 82.0 °F 57.2 °F 42% 29.83 in 10.0 mi NE 6.9 mph - N/A   Clear
1:15 PM 84.2 °F 83.5 °F 57.2 °F 40% 29.82 in 10.0 mi ENE 6.9 mph - N/A   Clear
1:35 PM 86.0 °F 84.9 °F 57.2 °F 37% 29.81 in 10.0 mi NNE 8.1 mph - N/A   Clear
1:55 PM 86.0 °F 84.9 °F 57.2 °F 37% 29.80 in 10.0 mi NE 10.4 mph - N/A   Clear
2:15 PM 89.6 °F 88.1 °F 57.2 °F 33% 29.80 in 10.0 mi NNE 12.7 mph - N/A   Clear
2:35 PM 91.4 °F 90.7 °F 59.0 °F 34% 29.79 in 10.0 mi NNE 15.0 mph - N/A   Clear
2:55 PM 91.4 °F 90.7 °F 59.0 °F 34% 29.78 in 10.0 mi North 15.0 mph - N/A   Clear
3:15 PM 93.2 °F 92.6 °F 59.0 °F 32% 29.77 in 10.0 mi North 12.7 mph - N/A   Clear
3:35 PM 93.2 °F 92.6 °F 59.0 °F 32% 29.76 in 10.0 mi North 15.0 mph - N/A   Clear
3:55 PM 95.0 °F 93.7 °F 57.2 °F 28% 29.76 in - North 13.8 mph - N/A   Clear
4:15 PM 95.0 °F 93.7 °F 57.2 °F 28% 29.75 in - North 9.2 mph - N/A   Clear
4:35 PM 95.0 °F 93.7 °F 57.2 °F 28% 29.75 in - North 12.7 mph - N/A   Clear
4:55 PM 93.2 °F 91.9 °F 57.2 °F 30% 29.74 in - NNE 12.7 mph - N/A   Clear
5:15 PM 91.4 °F 89.9 °F 57.2 °F 31% 29.74 in - North 11.5 mph - N/A   Clear
5:35 PM 91.4 °F 89.9 °F 57.2 °F 31% 29.74 in - North 10.4 mph - N/A   Clear
5:55 PM 91.4 °F 89.9 °F 57.2 °F 31% 29.73 in - North 12.7 mph - N/A   Clear
6:15 PM 89.6 °F 88.1 °F 57.2 °F 33% 29.73 in - NNE 10.4 mph - N/A   Clear
6:35 PM 86.0 °F 84.9 °F 57.2 °F 37% 29.73 in 10.0 mi NNE 9.2 mph - N/A   Clear
6:55 PM 84.2 °F 83.5 °F 57.2 °F 40% 29.72 in 10.0 mi North 9.2 mph - N/A   Clear
7:15 PM 82.4 °F 82.0 °F 57.2 °F 42% 29.72 in 10.0 mi North 8.1 mph - N/A   Clear
7:35 PM 80.6 °F 80.5 °F 55.4 °F 42% 29.72 in 10.0 mi North 9.2 mph - N/A   Clear
7:55 PM 77.0 °F - 57.2 °F 50% 29.72 in 10.0 mi North 6.9 mph - N/A   Clear
8:15 PM 73.4 °F - 57.2 °F 57% 29.72 in 10.0 mi North 6.9 mph - N/A   Clear
8:35 PM 68.0 °F - 55.4 °F 64% 29.72 in 10.0 mi North 8.1 mph - N/A   Clear
8:55 PM 66.2 °F - 55.4 °F 68% 29.73 in 10.0 mi North 9.2 mph - N/A   Clear
9:15 PM 64.4 °F - 55.4 °F 73% 29.73 in 10.0 mi North 4.6 mph - N/A   Clear
9:35 PM 62.6 °F - 53.6 °F 72% 29.73 in 10.0 mi NNE 4.6 mph - N/A   Clear
9:55 PM 62.6 °F - 55.4 °F 77% 29.74 in 10.0 mi NE 4.6 mph - N/A   Clear
10:15 PM 59.0 °F - 53.6 °F 82% 29.75 in 10.0 mi NNE 6.9 mph - N/A   Clear
10:35 PM 59.0 °F - 53.6 °F 82% 29.75 in 10.0 mi NNE 6.9 mph - N/A   Clear
10:55 PM 59.0 °F - 55.4 °F 88% 29.75 in 10.0 mi Calm Calm - N/A   Clear
11:15 PM 62.6 °F - 57.2 °F 82% 29.75 in 10.0 mi Calm Calm - N/A   Clear
11:35 PM 59.0 °F - 55.4 °F 88% 29.75 in 10.0 mi Calm Calm - N/A   Clear
11:55 PM 57.2 °F - 55.4 °F 94% 29.75 in 10.0 mi Calm Calm - N/A   Clear